Regional Weather Roundup
Issued by NWS Little Rock, AR

Home | Current Version | Previous Version | Graphics & Text | Print | Product List | Glossary On
Versions: 1 2 3 4 5 6 7 8 9 10 11 12 13 14 15 16 17 18 19 20 21 22 23 24 25 26 27 28 29 30 31 32 33 34 35 36 37 38 39 40 41 42 43 44 45 46 47 48 49 50
000
ASUS44 KLZK 171205
RWRLZK

WEATHER ROUNDUP FOR ARKANSAS
NATIONAL WEATHER SERVICE LITTLE ROCK AR
600 AM CST WED DEC 17 2014

NOTE: "FAIR" INDICATES FEW OR NO CLOUDS BELOW 12,000 FEET WITH NO
SIGNIFICANT WEATHER AND/OR OBSTRUCTIONS TO VISIBILITY.

ARZ001-003-010-029-171300-
NORTHWEST ARKANSAS

CITY           SKY/WX    TMP DP  RH WIND       PRES   REMARKS
FAYETTEVILLE   PTCLDY    26  25  96 CALM      30.28S
6HR MIN TEMP:  25; 6HR MAX TEMP:  28;

FORT SMITH     CLOUDY    30  27  88 CALM      30.32R
6HR MIN TEMP:  29; 6HR MAX TEMP:  33;

HARRISON       PTCLDY    25  23  92 W3        30.29R
6HR MIN TEMP:  24; 6HR MAX TEMP:  28;

BENTONVILLE    PTCLDY    28  23  80 E5        30.29S WCI  23
6HR MIN TEMP:  28; 6HR MAX TEMP:  30;

ROGERS         PTCLDY    26  24  92 NE5       30.29S WCI  20
6HR MIN TEMP:  25; 6HR MAX TEMP:  28;

SILOAM SPGS    PTCLDY    27  19  74 E5        30.30S WCI  21
6HR MIN TEMP:  27; 6HR MAX TEMP:  28;

HIGHFILL       PTCLDY    27  24  89 NE6       30.28S WCI  20
6HR MIN TEMP:  26; 6HR MAX TEMP:  30;

SPRINGDALE     CLEAR     28  25  86 E7        30.30  WCI  21
$$

ARZ004-005-016-171300-
NORTH CENTRAL ARKANSAS

CITY           SKY/WX    TMP DP  RH WIND       PRES   REMARKS
BATESVILLE     PTCLDY    28  25  86 NW3       30.33R
6HR MIN TEMP:  28; 6HR MAX TEMP:  34;

FLIPPIN        PTCLDY    27  19  74 CALM      30.31S
6HR MIN TEMP:  27; 6HR MAX TEMP:  30;

MTN HOME       PTCLDY    24  22  91 CALM      30.30R
6HR MIN TEMP:  24; 6HR MAX TEMP:  28;

$$

ARZ040-041-171300-
WEST CENTRAL ARKANSAS

CITY           SKY/WX    TMP DP  RH WIND       PRES   REMARKS
MENA           CLOUDY    32  32 100 CALM      30.28R
MOUNT IDA      CLOUDY    29  27  92 CALM      30.27R
6HR MIN TEMP:  28; 6HR MAX TEMP:  30;

$$

ARZ009-017-025-026-028-171300-
NORTHEAST ARKANSAS

CITY           SKY/WX    TMP DP  RH WIND       PRES   REMARKS
CORNING        FAIR      30  27  86 N6        30.33S WCI  24
JONESBORO      PTCLDY    31  28  89 CALM      30.33R
6HR MIN TEMP:  30; 6HR MAX TEMP:  33;

NEWPORT        PTCLDY    29  28  96 NW5       30.34R WCI  24
6HR MIN TEMP:  29; 6HR MAX TEMP:  32;

WALNUT RIDGE   CLEAR     30  25  80 CALM      30.31F
6HR MIN TEMP:  28; 6HR MAX TEMP:  36;

BLYTHEVILLE    CLOUDY    35  31  85 N12       30.32R WCI  27
6HR MIN TEMP:  33; 6HR MAX TEMP:  38;

$$

ARZ022-023-033-042-044-171300-
CENTRAL ARKANSAS

CITY           SKY/WX    TMP DP  RH WIND       PRES   REMARKS
LITTLE ROCK    CLOUDY    34  26  72 N6        30.34R WCI  29
6HR MIN TEMP:  33; 6HR MAX TEMP:  36;

N LITTLE ROCK    N/A     31  29  92 N5        30.34R WCI  26
6HR MIN TEMP:  31; 6HR MAX TEMP:  34;

JACKSONVILLE   MOCLDY    28  25  89 CALM      30.33R
6HR MIN TEMP:  27; 6HR MAX TEMP:  34;

SEARCY         MOCLDY    29  27  92 N3        30.35R
6HR MIN TEMP:  27; 6HR MAX TEMP:  29;

HOT SPRINGS    CLOUDY    31  28  89 CALM      30.31S
6HR MIN TEMP:  30; 6HR MAX TEMP:  35;

RUSSELLVILLE   MOCLDY    29  27  92 CALM      30.32R
6HR MIN TEMP:  28; 6HR MAX TEMP:  34;

CLINTON        FAIR      28  27  93 CALM      30.33S
$$

ARZ036-171300-
EAST ARKANSAS

CITY           SKY/WX    TMP DP  RH WIND       PRES   REMARKS
WEST MEMPHIS   PTCLDY    31  30  96 N5        30.31R WCI  26
6HR MIN TEMP:  31; 6HR MAX TEMP:  33;

$$

ARZ050-053-066-070-073-171300-
SOUTHWEST ARKANSAS

CITY           SKY/WX    TMP DP  RH WIND       PRES   REMARKS
ARKADELPHIA    FAIR      31  31 100 CALM      30.34R
6HR MIN TEMP:  31; 6HR MAX TEMP:  34;

CAMDEN         MOCLDY    28  27  93 CALM      30.33R
TEXARKANA      CLOUDY    33  30  88 E5        30.30S WCI  29
6HR MIN TEMP:  31; 6HR MAX TEMP:  36;

EL DORADO      CLOUDY    32  30  92 N3        30.32R
6HR MIN TEMP:  32; 6HR MAX TEMP:  35;

DE QUEEN       CLOUDY    31  31 100 CALM      30.29R
6HR MIN TEMP:  29; 6HR MAX TEMP:  32;

$$

ARZ056-057-069-171300-
SOUTHEAST ARKANSAS

CITY           SKY/WX    TMP DP  RH WIND       PRES   REMARKS
PINE BLUFF     MOCLDY    32  28  85 N3        30.33R
6HR MIN TEMP:  32; 6HR MAX TEMP:  36; 6HR PCP: TRACE;

STUTTGART      MOCLDY    30  27  86 N6        30.33S WCI  24
6HR MIN TEMP:  30; 6HR MAX TEMP:  34;

MONTICELLO     PTCLDY    32  29  88 NE5       30.31R WCI  27
6HR MIN TEMP:  32; 6HR MAX TEMP:  38;


$$




USA.gov is the U.S. government's official web portal to all federal, state and local government web resources and services.